EW8130 Weather Reports


Display with metric or nautical units.
time (UTC)temp
F
wind
direction
speed
MPH
gust
MPH
rain 1hr
in
rain 24hr
in
rain mn
in
humidity
%
barometer
mb
20260505100010 71 359 0.0 11.0 0.00 0.00 0.00 85 983.6
20260505094505 71 93 2.0 16.0 0.00 0.00 0.00 85 983.8
20260505093006 71 87 0.0 9.0 0.00 0.00 0.00 85 983.9
20260505091501 71 122 0.0 15.0 0.00 0.00 0.00 85 983.8
20260505090108 71 134 7.0 15.0 0.00 0.00 0.00 85 983.8
20260505084558 71 106 2.0 18.0 0.00 0.00 0.00 85 983.9
20260505083102 71 124 0.0 14.0 0.00 0.00 0.00 85 984.0
20260505081558 71 128 0.0 14.0 0.00 0.00 0.00 85 984.0
20260505080055 71 116 2.0 15.0 0.00 0.00 0.00 85 984.2
20260505074550 71 106 1.0 13.0 0.00 0.00 0.00 85 984.3
20260505073048 71 113 2.0 11.0 0.00 0.00 0.00 84 984.7
20260505071546 71 104 1.0 11.0 0.00 0.00 0.00 84 984.8
20260505070045 71 139 1.0 14.0 0.00 0.00 0.00 83 984.9
20260505064543 72 127 2.0 12.0 0.00 0.00 0.00 83 985.2
20260505063042 72 116 0.0 11.0 0.00 0.00 0.00 82 985.2
20260505061546 72 102 0.0 10.0 0.00 0.00 0.00 82 985.4
20260505060040 72 117 3.0 11.0 0.00 0.00 0.00 81 985.3
20260505054541 72 145 2.0 14.0 0.00 0.00 0.00 81 985.3
20260505053043 72 58 0.0 8.0 0.00 0.00 0.00 80 985.4
20260505051536 72 62 0.0 9.0 0.00 0.00 0.00 79 985.6
20260505041531 73 92 0.0 8.0 0.00 0.00 0.00 76 985.9
20260505040031 73 56 0.0 7.0 0.00 0.00 0.00 75 985.9
20260505034529 74 91 0.0 6.0 0.00 0.00 0.00 74 985.6
20260505033044 74 39 1.0 6.0 0.00 0.00 0.00 74 985.7
20260505031530 74 88 0.0 7.0 0.00 0.00 0.00 73 985.9
20260505030030 74 72 1.0 8.0 0.00 0.00 0.00 73 985.9
20260505024528 74 95 0.0 8.0 0.00 0.00 0.00 72 985.8
20260505023028 75 68 0.0 6.0 0.00 0.00 0.00 72 985.4
20260505021528 75 57 0.0 3.0 0.00 0.00 0.00 71 985.6
20260505020027 75 120 0.0 2.0 0.00 0.00 0.00 71 985.5
20260505014528 75 100 0.0 3.0 0.00 0.00 0.00 70 985.6
20260505013025 76 118 0.0 4.0 0.00 0.00 0.00 70 985.5
20260505011525 76 87 0.0 8.0 0.00 0.00 0.00 69 985.4
20260505010024 76 89 0.0 9.0 0.00 0.00 0.00 69 985.5
20260505004537 77 359 0.0 3.0 0.00 0.00 0.00 68 985.6
20260505003022 77 95 0.0 11.0 0.00 0.00 0.00 66 985.6
20260505001524 78 120 0.0 3.0 0.00 0.00 0.00 65 985.8
20260505000022 78 134 0.0 6.0 0.00 0.00 0.00 65 985.8
20260504234527 78 90 0.0 1.0 0.00 0.00 0.00 65 986.0
20260504233018 78 90 0.0 14.0 0.00 0.00 0.00 64 985.9
20260504231532 79 120 0.0 14.0 0.00 0.00 0.00 63 985.9
20260504230016 79 118 0.0 5.0 0.00 0.00 0.00 62 986.3
20260504224516 80 359 1.0 14.0 0.00 0.00 0.00 62 986.4
20260504223015 80 98 1.0 13.0 0.00 0.00 0.00 61 986.2
20260504221513 80 123 0.0 13.0 0.00 0.00 0.00 61 986.5
20260504220012 80 359 0.0 13.0 0.00 0.00 0.00 61 986.7
20260504214516 80 182 0.0 19.0 0.00 0.00 0.00 61 986.8
20260504213008 80 359 0.0 14.0 0.00 0.00 0.00 60 987.1
20260504211506 80 359 0.0 10.0 0.00 0.00 0.00 59 987.3
20260504210007 79 87 0.0 12.0 0.00 0.00 0.00 60 987.6
20260504204502 80 109 1.0 15.0 0.00 0.00 0.00 60 987.8
20260504203100 79 91 0.0 12.0 0.00 0.00 0.00 59 988.0
20260504201602 79 88 0.0 10.0 0.00 0.00 0.00 59 988.5
20260504200058 80 160 0.0 9.0 0.00 0.00 0.00 56 988.8
20260504194556 79 88 0.0 19.0 0.00 0.00 0.00 56 988.9
20260504193051 79 109 1.0 13.0 0.00 0.00 0.00 56 989.1
20260504191549 78 359 0.0 15.0 0.00 0.00 0.00 56 989.4
20260504190057 79 97 4.0 14.0 0.00 0.00 0.00 55 989.6
20260504184600 78 133 0.0 9.0 0.00 0.00 0.00 55 989.7
20260504183050 77 90 0.0 14.0 0.00 0.00 0.00 54 990.0
20260504181542 77 359 4.0 20.0 0.00 0.00 0.00 53 990.2
20260504180041 76 119 2.0 14.0 0.00 0.00 0.00 54 990.2
20260504174538 76 359 0.0 14.0 0.00 0.00 0.00 52 990.8
20260504173036 76 359 0.0 6.0 0.00 0.00 0.00 53 990.9
20260504171541 76 127 0.0 10.0 0.00 0.00 0.00 53 991.2